DW8492 Weather Reports


Display with metric or nautical units.
time (UTC)temp
F
wind
direction
speed
MPH
gust
MPH
rain 1hr
in
rain 24hr
in
rain mn
in
humidity
%
barometer
mb
20260831041605 68 134 0.0 0.0 0.00 0.00 0.00 89 1018.5
20260831040024 68 134 0.0 2.0 0.00 0.00 0.00 88 1018.5
20260831034608 68 134 0.0 1.0 0.00 0.00 0.00 88 1018.6
20260831033032 68 134 0.0 3.0 0.00 0.00 0.00 88 1018.8
20260831031604 69 134 1.0 3.0 0.00 0.00 0.00 88 1019.0
20260831030034 69 360 0.0 3.0 0.00 0.00 0.00 88 1019.5
20260831024627 70 355 0.0 0.0 0.00 0.00 0.00 89 1019.8
20260831023035 70 355 0.0 3.0 0.00 0.00 0.00 89 1020.0
20260831021506 70 36 0.0 3.0 0.00 0.00 0.00 89 1020.1
20260831020041 70 5 1.0 3.0 0.00 0.00 0.00 89 1020.0
20260831014509 70 5 0.0 2.0 0.00 0.00 0.00 89 1019.5
20260831013057 70 5 0.0 2.0 0.00 0.00 0.00 89 1019.1
20260831011517 70 5 0.0 0.0 0.00 0.00 0.00 88 1018.7
20260831010054 71 5 0.0 0.0 0.00 0.00 0.00 88 1018.5
20260831004523 71 5 0.0 0.0 0.00 0.00 0.00 87 1018.1
20260831003101 71 9 0.0 0.0 0.00 0.00 0.00 87 1017.9
20260831001531 71 9 0.0 0.0 0.00 0.00 0.00 86 1017.5
20260831000113 72 9 0.0 0.0 0.00 0.00 0.00 85 1017.6
20260830234541 73 9 0.0 0.0 0.00 0.00 0.00 83 1017.6
20260830233015 73 9 0.0 0.0 0.00 0.00 0.00 82 1017.5
20260830231610 73 9 0.0 2.0 0.00 0.00 0.00 82 1017.5
20260830230028 74 9 0.0 2.0 0.00 0.00 0.00 82 1017.6
20260830224636 74 10 0.0 0.0 0.00 0.00 0.00 81 1017.5
20260830223031 75 14 0.0 0.0 0.00 0.00 0.00 80 1017.5
20260830221611 75 14 0.0 0.0 0.00 0.00 0.00 78 1017.5
20260830220025 75 13 1.0 3.0 0.00 0.00 0.00 77 1017.5
20260830214605 76 14 0.0 3.0 0.00 0.00 0.00 76 1017.3
20260830213028 76 350 0.0 3.0 0.00 0.00 0.00 73 1017.3
20260830211601 77 355 0.0 3.0 0.00 0.00 0.00 71 1017.6
20260830210116 77 355 1.0 3.0 0.00 0.00 0.00 69 1017.7
20260830204532 77 27 0.0 4.0 0.00 0.00 0.00 69 1017.8
20260830203103 77 5 1.0 4.0 0.00 0.00 0.00 68 1017.9
20260830201530 77 347 0.0 0.0 0.00 0.00 0.00 70 1017.9
20260830200109 76 345 1.0 2.0 0.00 0.00 0.00 69 1018.0
20260830194536 77 15 2.0 5.0 0.00 0.00 0.00 67 1018.2
20260830193005 77 360 0.0 4.0 0.00 0.00 0.00 67 1018.3
20260830191540 78 35 1.0 5.0 0.00 0.00 0.00 68 1018.4
20260830190115 78 5 3.0 6.0 0.00 0.00 0.00 68 1018.6
20260830184612 79 348 3.0 8.0 0.00 0.00 0.00 69 1018.6
20260830183036 80 360 1.0 5.0 0.00 0.00 0.00 64 1018.6
20260830181504 81 117 2.0 5.0 0.00 0.00 0.00 63 1018.8
20260830180055 81 260 0.0 8.0 0.00 0.00 0.00 64 1018.8
20260830174606 82 14 1.0 5.0 0.00 0.00 0.00 62 1018.9
20260830173034 82 236 1.0 6.0 0.00 0.00 0.00 61 1019.2
20260830171613 82 211 2.0 4.0 0.00 0.00 0.00 62 1019.3
20260830170040 83 221 1.0 5.0 0.00 0.00 0.00 61 1019.4
20260830164613 84 355 2.0 6.0 0.00 0.00 0.00 59 1019.4
20260830163035 82 15 1.0 6.0 0.00 0.00 0.00 63 1019.3
20260830161615 82 355 0.0 3.0 0.00 0.00 0.00 65 1019.6
20260830160034 81 250 1.0 4.0 0.00 0.00 0.00 63 1019.6
20260830154606 81 219 0.0 3.0 0.00 0.00 0.00 66 1019.5
20260830153021 79 224 0.0 2.0 0.00 0.00 0.00 70 1019.7
20260830151605 79 234 1.0 4.0 0.00 0.00 0.00 70 1019.6
20260830150027 77 257 0.0 3.0 0.00 0.00 0.00 75 1019.6
20260830144609 76 249 1.0 3.0 0.00 0.00 0.00 76 1019.5
20260830143044 74 161 0.0 3.0 0.00 0.00 0.00 81 1019.3
20260830141555 72 205 1.0 5.0 0.00 0.00 0.00 87 1019.3
20260830140019 69 250 1.0 4.0 0.00 0.00 0.00 95 1019.2
20260830134607 68 242 0.0 0.0 0.00 0.00 0.00 97 1019.2
20260830133035 67 242 0.0 0.0 0.00 0.00 0.00 98 1019.4
20260830131609 66 242 0.0 0.0 0.00 0.00 0.00 98 1019.3
20260830124532 63 244 0.0 0.0 0.00 0.00 0.00 98 1019.5
20260830123127 61 245 0.0 0.0 0.00 0.00 0.00 98 1019.5
20260830121534 60 245 0.0 0.0 0.00 0.00 0.00 97 1019.5
20260830120002 60 245 0.0 0.0 0.00 0.00 0.00 97 1019.6
20260830114559 60 245 0.0 0.0 0.00 0.00 0.00 97 1019.6
20260830113005 59 245 0.0 0.0 0.00 0.00 0.00 97 1019.6
20260830111536 59 245 0.0 0.0 0.00 0.00 0.00 97 1019.4
20260830110110 59 245 0.0 0.0 0.00 0.00 0.00 97 1019.4
20260830104550 59 245 0.0 0.0 0.00 0.00 0.00 97 1019.5
20260830103019 59 244 0.0 0.0 0.00 0.00 0.00 97 1019.5
20260830101600 59 243 0.0 0.0 0.00 0.00 0.00 97 1019.4
20260830100027 59 243 0.0 0.0 0.00 0.00 0.00 97 1019.4
20260830094605 59 243 0.0 0.0 0.00 0.00 0.00 97 1019.5
20260830093031 59 243 0.0 0.0 0.00 0.00 0.00 97 1019.5
20260830091610 59 243 0.0 0.0 0.00 0.00 0.00 97 1019.5
20260830090021 58 243 0.0 0.0 0.00 0.00 0.00 97 1019.5
20260830084604 58 243 0.0 0.0 0.00 0.00 0.00 97 1019.6
20260830083033 58 243 0.0 0.0 0.00 0.00 0.00 96 1019.7
20260830081546 58 243 0.0 0.0 0.00 0.00 0.00 97 1019.9
20260830080105 58 243 0.0 0.0 0.00 0.00 0.00 96 1020.0
20260830074614 58 243 0.0 0.0 0.00 0.00 0.00 96 1020.0
20260830073032 58 243 0.0 0.0 0.00 0.00 0.00 96 1019.9
20260830071609 57 243 0.0 0.0 0.00 0.00 0.00 96 1019.9
20260830070036 57 243 0.0 0.0 0.00 0.00 0.00 96 1020.1
20260830064501 56 243 0.0 0.0 0.00 0.00 0.00 96 1020.0
20260830063039 56 243 0.0 0.0 0.00 0.00 0.00 96 1020.1
20260830061612 56 243 0.0 0.0 0.00 0.00 0.00 95 1019.9
20260830060101 57 243 0.0 0.0 0.00 0.00 0.00 95 1020.0
20260830054529 57 243 0.0 0.0 0.00 0.00 0.00 95 1020.1
20260830053057 57 243 0.0 0.0 0.00 0.00 0.00 95 1019.9
20260830051522 57 243 0.0 0.0 0.00 0.00 0.00 95 1019.8
20260830050100 58 243 0.0 0.0 0.00 0.00 0.00 95 1019.9
20260830044525 58 243 0.0 0.0 0.00 0.00 0.00 95 1020.0
20260830043100 59 243 0.0 0.0 0.00 0.00 0.00 95 1020.0